Weather History for Crestview, FL

Change the Weather History Date:

Monday, January 28, 2013

  Actual Average Record
Temperature  
Mean Temperature 60 °F -  
Max Temperature 70 °F - - ()
Min Temperature 51 °F - - ()
Degree Days  
Heating Degree Days 4    
Growing Degree Days 10 (Base 50)    
Moisture  
Dew Point 59 °F    
Average Humidity 85    
Maximum Humidity 100    
Minimum Humidity 73    
Precipitation  
Precipitation 0.00 in - - ()
Sea Level Pressure  
Sea Level Pressure 30.27 in    
Wind  
Wind Speed 5 mph (SE)    
Max Wind Speed 9 mph    
Max Gust Speed -    
Visibility 8 miles    
Events      
T = Trace of Precipitation, MM = Missing Value Source: NWS Daily Summary

Daily Weather History Graph

Daily Weather History Graph

Search for Another Location

Airport:

Trip Planner

Search our weather history database for the weather conditions in past years. The results will help you decide how hot, cold, wet, or windy it might be!

Date:

Astronomy

Jan. 28, 2013 Rise Set
Actual Time 6:39 AM CST 5:19 PM CST
Civil Twilight 6:14 AM CST 5:44 PM CST
Nautical Twilight 5:45 AM CST 6:13 PM CST
Astronomical Twilight 5:16 AM CST 6:42 PM CST
Moon 7:01 PM CST (1/28) 7:14 AM CST (1/28)
Length of Visible Light 11h 30m
Length of Day
10h 39m
Full, 98% of the Moon is Illuminated
Jan 28
Full
Feb 3
Last Quarter
Feb 10
New
Feb 17
First Quarter
Feb 25
Full

Hourly Weather History & Observations

Time (CST) Temp. Dew Point Humidity Pressure Visibility Wind Dir Wind Speed Gust Speed Precip Events Conditions
12:55 AM 53.2 °F 51.1 °F 92% 30.29 in 7.0 mi Calm Calm - N/A   Clear
1:30 AM 51.8 °F 50.0 °F 94% 30.29 in 2.5 mi East 3.5 mph - N/A   Clear
1:34 AM 51.8 °F 51.8 °F 100% 30.29 in 3.0 mi East 3.5 mph - N/A   Clear
1:55 AM 54.7 °F 54.3 °F 99% 30.29 in 6.0 mi ESE 3.5 mph - N/A   Partly Cloudy
2:01 AM 55.4 °F 55.4 °F 100% 30.29 in 8.0 mi SE 4.6 mph - N/A   Mostly Cloudy
2:55 AM 59.0 °F 56.5 °F 91% 30.30 in 10.0 mi ESE 5.8 mph - N/A   Overcast
3:55 AM 59.0 °F 56.1 °F 90% 30.27 in 10.0 mi ESE 6.9 mph - N/A   Overcast
4:20 AM 59.0 °F 55.4 °F 88% 30.28 in 10.0 mi ESE 4.6 mph - N/A   Overcast
4:55 AM 58.8 °F 55.6 °F 89% 30.28 in 10.0 mi ESE 5.8 mph - N/A   Overcast
5:55 AM 58.6 °F 54.5 °F 86% 30.30 in 10.0 mi ESE 9.2 mph - N/A   Overcast
6:55 AM 58.6 °F 54.9 °F 87% 30.31 in 10.0 mi ESE 8.1 mph - N/A   Overcast
6:56 AM 59.0 °F 55.4 °F 88% 30.31 in 10.0 mi ESE 8.1 mph - N/A   Overcast
7:55 AM 59.4 °F 55.9 °F 88% 30.32 in 10.0 mi ESE 4.6 mph - N/A   Overcast
8:31 AM 60.8 °F 55.4 °F 82% 30.32 in 10.0 mi ESE 8.1 mph - N/A   Overcast
8:55 AM 61.2 °F 56.7 °F 85% 30.32 in 4.0 mi ESE 5.8 mph - N/A   Mostly Cloudy
9:54 AM 62.6 °F 57.2 °F 82% 30.33 in 10.0 mi ESE 5.8 mph - N/A   Overcast
9:55 AM 63.3 °F 57.6 °F 81% 30.34 in 6.0 mi SE 4.6 mph - N/A   Overcast
9:58 AM 63.3 °F 57.6 °F 81% 30.33 in 10.0 mi ESE 5.8 mph - N/A   Overcast
10:38 AM 64.4 °F 59.0 °F 83% 30.33 in 10.0 mi ESE 6.9 mph - N/A   Overcast
10:41 AM 64.4 °F 59.0 °F 83% 30.33 in 6.0 mi SE 8.1 mph - N/A   Overcast
10:55 AM 64.0 °F 58.6 °F 83% 30.33 in 10.0 mi Variable 5.8 mph - N/A   Overcast
11:41 AM 64.4 °F 59.0 °F 83% 30.31 in 10.0 mi SSE 9.2 mph - N/A   Overcast
11:55 AM 66.4 °F 58.8 °F 77% 30.30 in 10.0 mi SSE 9.2 mph - N/A   Overcast
12:55 PM 65.7 °F 59.4 °F 80% 30.28 in 10.0 mi ESE 6.9 mph - N/A   Overcast
1:55 PM 67.6 °F 60.4 °F 78% 30.26 in 10.0 mi SE 5.8 mph - N/A   Overcast
2:47 PM 69.8 °F 60.8 °F 73% 30.24 in 10.0 mi SE 5.8 mph - N/A   Scattered Clouds
2:50 PM 68.0 °F 62.6 °F 83% 30.24 in 10.0 mi SE 8.1 mph - N/A   Mostly Cloudy
2:55 PM 69.8 °F 61.2 °F 74% 30.24 in 10.0 mi SSE 4.6 mph - N/A   Scattered Clouds
2:58 PM 69.8 °F 61.2 °F 74% 30.24 in 3.0 mi Variable 2.3 mph - N/A   Haze
3:13 PM 69.8 °F 60.8 °F 73% 30.23 in 2.5 mi SE 8.1 mph - N/A   Haze
3:30 PM 69.8 °F 60.8 °F 73% 30.23 in 10.0 mi South 6.9 mph - N/A   Scattered Clouds
3:55 PM 70.7 °F 61.5 °F 73% 30.24 in 10.0 mi SSE 5.8 mph - N/A   Scattered Clouds
3:58 PM 70.7 °F 61.5 °F 73% 30.23 in 5.0 mi South 8.1 mph - N/A   Haze
4:55 PM 68.7 °F 61.3 °F 77% 30.24 in 10.0 mi SE 4.6 mph - N/A   Mostly Cloudy
5:02 PM 68.0 °F 60.8 °F 78% 30.24 in 2.5 mi SSE 4.6 mph - N/A   Haze
5:10 PM 68.0 °F 60.8 °F 78% 30.24 in 2.0 mi SSE 4.6 mph - N/A   Haze
5:33 PM 68.0 °F 60.8 °F 78% 30.23 in 2.5 mi SSE 4.6 mph - N/A   Haze
5:39 PM 68.0 °F 60.8 °F 78% 30.23 in 3.0 mi SE 5.8 mph - N/A   Haze
5:53 PM 68.0 °F 60.8 °F 78% 30.23 in 3.0 mi SSE 5.8 mph - N/A   Haze
5:55 PM 67.3 °F 61.3 °F 81% 30.24 in 10.0 mi SSE 5.8 mph - N/A   Mostly Cloudy
6:53 PM 64.4 °F 60.8 °F 88% 30.23 in 3.0 mi South 3.5 mph - N/A   Clear
6:55 PM 63.9 °F 60.8 °F 90% 30.24 in 10.0 mi South 4.6 mph - N/A   Scattered Clouds
7:55 PM 63.9 °F 61.0 °F 90% 30.23 in 10.0 mi SSE 6.9 mph - N/A   Clear
8:55 PM 62.2 °F 60.4 °F 94% 30.23 in 10.0 mi SSE 4.6 mph - N/A   Mostly Cloudy
9:30 PM 62.6 °F 60.8 °F 94% 30.22 in 10.0 mi SSE 3.5 mph - N/A   Partly Cloudy
9:55 PM 61.2 °F 60.4 °F 97% 30.22 in 10.0 mi SSE 2.3 mph - N/A   Partly Cloudy
10:55 PM 61.7 °F 61.2 °F 98% 30.21 in 10.0 mi SSE 4.6 mph - N/A   Clear
11:55 PM 61.9 °F 60.8 °F 96% 30.19 in 10.0 mi SE 3.5 mph - N/A   Partly Cloudy